[[{"header":{"parameterUnit":"m.s-1","parameterCategory":1,"la1":30.2991,"la2":30.254,"lo1":-89.0895,"lo2":-89.0444,"dy":0.0017,"dx":0.0017,"nx":28,"ny":28,"refTime":"2025-03-13T03:00:00:Z","depth":0,"parameterNumber":2,"parameterNumberName":"U-component_of_WINDS"},"data":[0,0,0,0,0,0,0,0,0,0,0,0,0,0,0,0,0,0,0,0,0,0,0,0,0,0,0,0,0,0,0,0,0,0,0,0,0,0,0,0,0,0,0,0,0,0,0,0,0,0,0,0,0,0,0,0,0,0,-4.1069,-4.1071,0,-4.1238,-4.124,-4.1242,-4.1315,-4.1315,-4.1314,-4.1314,-4.1486,-4.149,-4.1495,0,0,0,0,0,0,0,0,0,0,0,0,0,-4.0808,-4.0813,-4.1069,-4.1071,-4.1073,-4.1237,-4.124,-4.1242,-4.1315,-4.1315,-4.1314,-4.1314,-4.1484,-4.149,-4.1495,0,0,0,0,0,0,0,0,0,0,0,0,0,-4.0944,-4.0814,-4.1068,-4.1129,-4.1136,-4.1237,-4.124,-4.1243,-4.1315,-4.1315,-4.1314,-4.1314,-4.1482,-4.1489,-4.1496,-4.1549,0,0,-4.1518,-4.1521,0,0,0,0,0,0,0,0,-4.0936,-4.0953,-4.1118,-4.1125,-4.1133,-4.1255,-4.1211,-4.1345,-4.1315,-4.1247,-4.1314,-4.1314,-4.1409,-4.1422,-4.1455,-4.1557,-4.1564,-4.1519,-4.1523,-4.1526,-4.1528,0,0,0,0,0,0,0,-4.0926,-4.0946,-4.1136,-4.112,-4.113,-4.1148,-4.1166,-4.1237,-4.1328,-4.1253,-4.1259,-4.1278,-4.1413,-4.1448,-4.1459,-4.1566,-4.1519,-4.1525,-4.153,-4.1532,-4.172,-4.172,0,0,0,0,0,0,-4.0907,-4.0938,-4.113,-4.1141,-4.1032,-4.1153,-4.1174,-4.1216,-4.1328,-4.1344,-4.1278,-4.1281,-4.1435,-4.1451,-4.1466,-4.1534,-4.1526,-4.1533,-4.1537,-4.1719,-4.172,-4.1721,0,0,0,0,0,0,-4.0901,-4.0924,-4.1123,-4.1041,-4.1068,-4.1158,-4.1205,-4.122,-4.1254,-4.1346,-4.1363,-4.1296,-4.1436,-4.1455,-4.1528,-4.1541,-4.1536,-4.1543,-4.1718,-4.1719,-4.172,-4.1672,0,0,0,0,0,0,-4.0894,-4.0921,-4.0942,-4.1041,-4.1072,-4.1183,-4.1206,-4.1223,-4.1267,-4.1272,-4.1368,-4.1384,-4.1437,-4.1516,-4.1535,-4.1551,-4.1549,-4.1717,-4.1719,-4.172,-4.1672,-4.1671,-4.167,0,0,0,0,0,-4.0884,-4.0922,-4.0943,-4.0966,-4.11,-4.1183,-4.1201,-4.1262,-4.1267,-4.1289,-4.1348,-4.1381,-4.1537,-4.1523,-4.1544,-4.1563,-4.1717,-4.1718,-4.172,-4.1673,-4.1671,-4.167,0,0,0,0,0,0,-4.0822,-4.0936,-4.0961,-4.1031,-4.1097,-4.1196,-4.1225,-4.1258,-4.1323,-4.1325,-4.1397,-4.1419,-4.1484,-4.1531,-4.1514,-4.162,-4.163,-4.1635,-4.1587,-4.1586,-4.1584,-4.1572,-4.1555,0,0,0,0,0,-4.0817,-4.0875,-4.0971,-4.1024,-4.1056,-4.1134,-4.1173,-4.1214,-4.1285,-4.1313,-4.1378,-4.1445,-4.1509,-4.155,-4.1614,-4.168,-4.1702,-4.1703,-4.1701,-4.17,-4.1704,-4.1742,-4.1744,-4.1725,-4.1725,-4.1725,0,0,-4.0806,-4.0875,-4.0908,-4.1014,-4.1069,-4.1128,-4.1158,-4.1218,-4.1262,-4.1322,-4.1395,-4.1444,-4.1524,-4.1593,-4.1626,-4.1634,-4.1714,-4.1702,-4.17,-4.1705,-4.1743,-4.1745,-4.1747,-4.1726,-4.1726,-4.1726,0,0,-4.0817,-4.0875,-4.0926,-4.0981,-4.1065,-4.1117,-4.1129,-4.1223,-4.1258,-4.1332,-4.1378,-4.1431,-4.154,-4.1595,-4.1637,-4.1668,-4.17,-4.1687,-4.1679,-4.1716,-4.1717,-4.1719,-4.173,-4.1733,-4.1691,-4.1691,-4.1691,0,-4.0793,-4.0883,-4.0947,-4.1006,-4.1051,-4.1108,-4.116,-4.121,-4.1311,-4.134,-4.1347,-4.1485,-4.1543,-4.1626,-4.1633,-4.1665,-4.1681,-4.1677,-4.1712,-4.1714,-4.1716,-4.1728,-4.1732,-4.1689,-4.1689,-4.1689,-4.1689,0,-4.085,-4.0911,-4.0942,-4.1038,-4.1087,-4.1141,-4.1213,-4.1254,-4.1291,-4.1342,-4.1416,-4.1487,-4.1567,-4.1589,-4.1626,-4.1677,-4.1679,-4.1698,-4.1709,-4.1715,-4.1727,-4.1732,-4.1686,-4.1686,-4.1687,-4.1688,0,0,-4.0826,-4.0957,-4.0967,-4.1011,-4.1108,-4.1157,-4.1214,-4.1292,-4.1326,-4.1393,-4.1442,-4.1533,-4.1551,-4.1599,-4.1642,-4.1674,-4.1694,-4.1689,-4.1692,-4.1687,-4.1755,-4.174,-4.1744,-4.1715,-4.1717,-4.1717,-4.1748,0,-4.085,-4.0955,-4.1014,-4.1094,-4.1152,-4.1207,-4.1257,-4.1321,-4.137,-4.1426,-4.148,-4.1543,-4.1562,-4.1592,-4.1625,-4.1684,-4.1708,-4.1683,-4.1762,-4.1764,-4.174,-4.175,-4.1735,-4.176,-4.1753,-4.1754,-4.1754,0,-4.0892,-4.0959,-4.1044,-4.1134,-4.1161,-4.1204,-4.1281,-4.1333,-4.1407,-4.1441,-4.1494,-4.1537,-4.1599,-4.1605,-4.1691,-4.1672,-4.1708,-4.1742,-4.1744,-4.1754,-4.1759,-4.176,-4.177,-4.1773,-4.1762,-4.1762,-4.1761,0,-4.0866,-4.0977,-4.1043,-4.1079,-4.1186,-4.1215,-4.1261,-4.1335,-4.1378,-4.1444,-4.1473,-4.1545,-4.1585,-4.164,-4.1701,-4.17,-4.1781,-4.1793,-4.1811,-4.1809,-4.1825,-4.1824,-4.1841,-4.1848,-4.1848,-4.1848,-4.1848,0,-4.0887,-4.0937,-4.1033,-4.1073,-4.1131,-4.1198,-4.1254,-4.1304,-4.1369,-4.142,-4.1472,-4.1518,-4.1596,-4.1652,-4.17,-4.1764,-4.1782,-4.181,-4.1823,-4.1806,-4.1802,-4.1831,-4.183,-4.1849,-4.1849,-4.1849,-4.1848,0,-4.0868,-4.0934,-4.101,-4.1104,-4.1129,-4.1168,-4.1249,-4.129,-4.1341,-4.1405,-4.1424,-4.1505,-4.1574,-4.164,-4.1732,-4.1765,-4.1828,-4.1844,-4.1803,-4.181,-4.1824,-4.1822,-4.186,-4.1869,-4.1869,-4.1869,-4.1869,0,-4.0877,-4.0917,-4.1016,-4.1054,-4.1099,-4.1159,-4.1203,-4.1271,-4.1314,-4.1402,-4.1432,-4.1505,-4.1567,-4.1674,-4.1741,-4.1811,-4.183,-4.1838,-4.1841,-4.1823,-4.183,-4.1827,-4.1831,-4.1837,-4.1836,-4.1836,-4.1836,0,-4.0886,-4.0916,-4.0978,-4.1051,-4.1103,-4.1164,-4.1226,-4.1254,-4.1334,-4.138,-4.1451,-4.1499,-4.1593,-4.1665,-4.1743,-4.179,-4.1826,-4.1834,-4.1842,-4.1826,-4.18,-4.1814,-4.1799,-4.1833,-4.1834,-4.1834,-4.1834,-4.1834,-4.0881,-4.0919,-4.0995,-4.1062,-4.1116,-4.1173,-4.1217,-4.1273,-4.1334,-4.1416,-4.1452,-4.1523,-4.1597,-4.1706,-4.1752,-4.1809,-4.1818,-4.1829,-4.1832,-4.1834,-4.183,-4.1791,-4.1824,-4.1824,-4.1824,-4.1824,-4.1824,0,-4.0893,-4.0944,-4.1005,-4.1091,-4.1143,-4.1173,-4.1243,-4.1286,-4.1348,-4.1413,-4.1473,-4.1554,-4.1624,-4.1696,-4.1769,-4.1801,-4.1819,-4.1818,-4.1816,-4.1827,-4.1818,-4.1804,-4.1802,-4.1802,-4.1802,-4.1802,-4.1802,-4.1802,-4.0905,-4.0971,-4.101,-4.1103,-4.1154,-4.1225,-4.1262,-4.1315,-4.1368,-4.1456,-4.1514,-4.1561,-4.1629,-4.1708,-4.1773,-4.1792,-4.1817,-4.1811,-4.1835,-4.1826,-4.1827,-4.1829,-4.1816,-4.1816,-4.1816,-4.1839,-4.1839,-4.1839]},{"header":{"parameterUnit":"m.s-1","parameterCategory":1,"la1":30.2991,"la2":30.254,"lo1":-89.0895,"lo2":-89.0444,"dy":0.0017,"dx":0.0017,"nx":28,"ny":28,"refTime":"2025-03-13T03:00:00:Z","depth":0,"parameterNumber":3,"parameterNumberName":"V-component_of_WINDS"},"data":[0,0,0,0,0,0,0,0,0,0,0,0,0,0,0,0,0,0,0,0,0,0,0,0,0,0,0,0,0,0,0,0,0,0,0,0,0,0,0,0,0,0,0,0,0,0,0,0,0,0,0,0,0,0,0,0,0,0,7.5079,7.5081,0,7.5226,7.5228,7.523,7.5212,7.5209,7.5207,7.5205,7.5352,7.5358,7.5364,0,0,0,0,0,0,0,0,0,0,0,0,0,7.4782,7.4787,7.5079,7.5081,7.5083,7.5226,7.5228,7.523,7.5212,7.5209,7.5206,7.5204,7.535,7.5357,7.5365,0,0,0,0,0,0,0,0,0,0,0,0,0,7.4918,7.4789,7.5079,7.5091,7.5094,7.5226,7.5228,7.5231,7.5213,7.5209,7.5206,7.5202,7.5348,7.5357,7.5366,7.5494,0,0,7.5394,7.5398,0,0,0,0,0,0,0,0,7.491,7.4929,7.5088,7.5091,7.5094,7.5197,7.5177,7.5319,7.5214,7.5167,7.5205,7.52,7.5303,7.5316,7.5351,7.5501,7.5507,7.5395,7.54,7.5404,7.5407,0,0,0,0,0,0,0,7.4901,7.4922,7.5137,7.509,7.5094,7.5089,7.5105,7.5204,7.5253,7.5171,7.517,7.5188,7.5304,7.5342,7.5354,7.5509,7.5394,7.5403,7.5408,7.5412,7.5775,7.5779,0,0,0,0,0,0,7.4889,7.4915,7.5133,7.5142,7.4991,7.5097,7.5115,7.5167,7.5252,7.5262,7.5191,7.5187,7.5328,7.5344,7.536,7.5518,7.5404,7.5413,7.5418,7.5771,7.5776,7.5781,0,0,0,0,0,0,7.4882,7.4908,7.5127,7.5028,7.5056,7.5106,7.5166,7.5172,7.521,7.5267,7.5276,7.5221,7.5326,7.5347,7.5462,7.5523,7.5417,7.5425,7.5766,7.5773,7.5778,7.5835,0,0,0,0,0,0,7.4874,7.4906,7.4955,7.5029,7.5061,7.5227,7.5169,7.5178,7.5227,7.5223,7.5298,7.5307,7.5325,7.5448,7.5471,7.5534,7.5433,7.5761,7.5769,7.5777,7.5827,7.5842,7.5854,0,0,0,0,0,7.4863,7.4964,7.4958,7.4984,7.5124,7.523,7.5248,7.5268,7.5232,7.5282,7.5319,7.5304,7.5512,7.546,7.5486,7.5552,7.5757,7.5767,7.5776,7.5821,7.5839,7.5854,0,0,0,0,0,0,7.4893,7.4973,7.4968,7.5095,7.5157,7.5227,7.5291,7.5286,7.5357,7.535,7.5371,7.5388,7.5505,7.554,7.548,7.5682,7.563,7.5645,7.5656,7.5673,7.5686,7.5676,7.544,0,0,0,0,0,7.4915,7.4996,7.5061,7.5167,7.5198,7.524,7.5286,7.5297,7.5361,7.5386,7.5431,7.5493,7.5573,7.5624,7.57,7.5832,7.585,7.5891,7.5904,7.5915,7.5928,7.6003,7.6023,7.5811,7.5811,7.5811,0,0,7.496,7.5014,7.5063,7.5175,7.5223,7.5307,7.5261,7.535,7.5413,7.5399,7.5512,7.5547,7.5617,7.5743,7.58,7.5775,7.599,7.5926,7.5935,7.5942,7.6015,7.6035,7.6053,7.5818,7.5816,7.5815,0,0,7.5086,7.5134,7.5229,7.528,7.5355,7.5382,7.5405,7.5478,7.5501,7.5615,7.5608,7.5682,7.5817,7.5869,7.5913,7.6062,7.6052,7.6086,7.6156,7.6229,7.6246,7.6261,7.6317,7.6336,7.6098,7.6098,7.6098,0,7.5132,7.5258,7.5278,7.5371,7.5421,7.5414,7.5512,7.5559,7.5655,7.569,7.566,7.5834,7.588,7.6019,7.6056,7.609,7.6118,7.6078,7.6242,7.6257,7.6272,7.6325,7.6346,7.6102,7.6102,7.6101,7.6101,0,7.5313,7.5401,7.5469,7.5564,7.5622,7.5716,7.5751,7.5806,7.5812,7.5843,7.596,7.6016,7.6105,7.6139,7.6144,7.6279,7.6262,7.6237,7.6185,7.6295,7.6346,7.6366,7.6108,7.6106,7.6105,7.6104,0,0,7.5461,7.5569,7.5594,7.5638,7.5722,7.579,7.5884,7.5973,7.6022,7.6088,7.6169,7.6286,7.6265,7.6315,7.6326,7.639,7.6508,7.6358,7.636,7.6386,7.6664,7.6684,7.6707,7.6502,7.6506,7.6509,7.6659,0,7.5597,7.5766,7.5788,7.5938,7.602,7.6017,7.6099,7.616,7.6191,7.6266,7.63,7.6384,7.6348,7.6379,7.6442,7.6481,7.6565,7.647,7.6579,7.6582,7.6563,7.6733,7.6754,7.6893,7.6679,7.6682,7.6685,0,7.5778,7.5853,7.6011,7.6087,7.6122,7.6196,7.6281,7.6352,7.6421,7.644,7.6497,7.6502,7.66,7.6543,7.668,7.6615,7.6661,7.6687,7.6693,7.6705,7.6641,7.6752,7.6937,7.6959,7.6715,7.6713,7.6711,0,7.5874,7.6013,7.6127,7.6165,7.6255,7.6308,7.6347,7.6413,7.6466,7.654,7.6575,7.6659,7.6705,7.677,7.6797,7.6752,7.6934,7.6878,7.6953,7.6953,7.6992,7.699,7.7189,7.7018,7.7018,7.7017,7.7017,0,7.6024,7.6122,7.6172,7.6242,7.6352,7.6377,7.6485,7.6523,7.6582,7.666,7.666,7.6733,7.6763,7.6841,7.6863,7.6975,7.6995,7.7014,7.7019,7.7015,7.7013,7.7046,7.7038,7.7023,7.7022,7.7021,7.702,0,7.615,7.6187,7.6312,7.6388,7.641,7.6488,7.6553,7.6621,7.6653,7.6751,7.6776,7.6825,7.6917,7.6951,7.7062,7.7076,7.7207,7.7203,7.7185,7.7186,7.726,7.7254,7.749,7.7524,7.7328,7.733,7.7331,0,7.6245,7.6321,7.6406,7.646,7.6502,7.6587,7.6642,7.667,7.6727,7.6813,7.6872,7.6964,7.7039,7.7187,7.7232,7.7318,7.7317,7.7394,7.733,7.7325,7.7322,7.7318,7.7327,7.7407,7.7409,7.741,7.7411,0,7.6411,7.6426,7.6506,7.6594,7.666,7.673,7.6798,7.6841,7.6879,7.6943,7.7039,7.7097,7.7213,7.7305,7.7394,7.7434,7.7431,7.7431,7.7454,7.7452,7.744,7.745,7.722,7.7426,7.7425,7.7423,7.7423,7.7422,7.6526,7.6595,7.6667,7.6756,7.6811,7.6875,7.6944,7.6986,7.7066,7.7163,7.7174,7.7278,7.7347,7.7466,7.7511,7.7592,7.7571,7.7603,7.7612,7.762,7.7627,7.7425,7.7608,7.7608,7.7607,7.7607,7.7607,0,7.6694,7.6741,7.6823,7.692,7.6991,7.6982,7.7057,7.7118,7.7209,7.7275,7.735,7.7461,7.7551,7.7605,7.7695,7.775,7.7751,7.7773,7.7771,7.7781,7.7639,7.7612,7.7772,7.7772,7.7772,7.7771,7.7771,7.7771,7.679,7.6907,7.6931,7.7075,7.7121,7.7224,7.7268,7.7328,7.7381,7.7505,7.7581,7.7616,7.7677,7.7773,7.7856,7.7869,7.7904,7.7929,7.7941,7.7807,7.779,7.7774,7.7749,7.7935,7.7935,7.8076,7.8078,7.8079]}]]